Tracking 25711 objects as of 22-May-2022
HD Live streaming from Space Station
objects crossing your sky now

ARABSAT 2B

Track ARABSAT 2B now!
ARABSAT 2B is classified as:


NORAD ID: 24652
Int'l Code: 1996-063A
Perigee: 36,009.7 km
Apogee: 36,061.0 km
Inclination: 7.4 °
Period: 1,448.5 minutes
Semi major axis: 42406 km
RCS: 3.8888 m2 (large)
Launch date: November 13, 1996
Source: Arab Satellite Communications Organization (AB)
Launch site: FRENCH GUIANA (FRGUI)

Second generation; radio and tv communications to Middle East.
aabbcc
Your satellite tracking list
Your tracking list is empty




NASA's NSSDC Master Catalog

Two Line Element Set (TLE):
1 24652U 96063A   22142.02798355 -.00000154  00000-0  00000-0 0  9994
2 24652   7.3616  60.8629 0006049  20.2621 168.7865  0.99416010 93673
Source of the keplerian elements: AFSPC